CAPE
0 0 0 0 0 0 0 0 0 0 0 0 0 0 0 12 48 67 123 138 171 305 367 438 479 563 633 716 777 868 1038 1253
0 0 0 0 0 0 0 0 0 0 0 0 0 0 0 0 12 66 129 246 354 463 462 540 628 708 804 828 887 906 1118 1332
0 0 0 0 0 0 0 0 0 0 0 0 0 0 0 0 0 46 131 165 372 675 599 600 743 821 925 933 1023 1056 1102 1312
0 0 0 0 0 0 0 0 0 0 0 0 0 0 0 0 0 0 82 112 487 740 755 753 826 892 975 1090 1113 1188 1160 1324
0 0 0 0 0 0 0 0 0 0 0 0 0 0 0 0 0 0 6 86 390 679 897 939 977 1056 1103 1252 1289 1414 1526 1447
0 0 0 0 0 0 0 0 0 0 0 0 0 0 0 0 0 7 16 59 252 471 766 920 1070 1129 1176 1330 1470 1563 1621 1656
0 0 0 0 0 0 0 0 0 0 0 0 0 0 0 0 6 3 23 51 164 245 431 781 1073 1231 1283 1380 1527 1627 1756 1812
0 0 0 0 0 0 0 0 0 0 0 0 0 0 0 0 25 14 21 71 163 244 437 576 773 863 1083 1321 1559 1772 1841 1726
0 0 0 0 0 0 0 0 0 0 0 0 0 0 0 0 8 70 74 120 175 251 412 513 602 779 805 992 1255 1553 1662 1657
1 0 0 0 0 0 0 0 0 0 0 0 0 0 1 1 36 109 191 278 242 206 317 361 426 494 615 883 1045 1254 1519 1587
0 0 0 0 0 0 0 0 0 0 0 0 0 0 0 0 0 18 74 131 190 181 127 97 139 245 482 679 835 1048 1313 1537
1 0 0 0 0 0 0 0 0 0 0 0 0 0 37 0 0 9 68 150 246 217 150 117 150 238 265 294 435 632 1333 1598
122 42 0 0 0 4 0 0 0 0 0 0 2 40 3 8 77 179 210 382 515 386 264 274 317 414 292 481 574 1329 1602 1667
49 83 31 0 9 124 46 0 3 5 12 14 14 3 21 23 20 24 24 4 92 58 107 204 237 296 451 524 827 1170 1302 1382
0 2 0 0 0 0 78 45 47 54 33 12 56 103 81 66 80 127 262 241 408 356 300 340 421 510 242 456 744 923 1128 1064
0 0 0 0 0 0 0 0 0 27 9 7 16 79 203 241 240 244 414 402 329 301 371 389 553 564 611 622 788 818 859 784
6 0 0 0 0 0 0 0 0 0 0 0 0 0 103 281 359 394 416 375 403 340 277 319 551 613 672 675 647 718 655 480
2 0 0 0 0 0 0 0 0 0 0 0 0 0 0 0 0 0 60 507 549 478 465 364 461 534 549 533 499 502 393 210
0 0 0 0 0 0 0 0 0 0 0 0 0 0 0 0 0 0 0 0 24 501 414 481 509 540 504 468 433 366 357 137
CIN
-0 -0 -0 -0 -0 -0 -0 -0 -0 -0 -0 -0 -0 -0 -0 -154 -192 -218 -300 -318 -305 -278 -274 -256 -255 -236 -245 -231 -219 -216 -202 -169
-0 -0 -0 -0 -0 -0 -0 -0 -0 -0 -0 -0 -0 -0 -0 -0 -138 -173 -255 -283 -305 -307 -275 -253 -238 -224 -248 -252 -219 -213 -211 -180
-0 -0 -0 -0 -0 -0 -0 -0 -0 -0 -0 -0 -0 -0 -0 -0 -0 -153 -250 -262 -303 -360 -291 -250 -225 -220 -234 -244 -212 -206 -224 -203
-0 -0 -0 -0 -0 -0 -0 -0 -0 -0 -0 -0 -0 -0 -0 -0 -0 -0 -291 -331 -362 -359 -313 -275 -268 -245 -253 -219 -213 -211 -233 -230
-0 -0 -0 -0 -0 -0 -0 -0 -0 -0 -0 -0 -0 -0 -0 -0 -0 -0 -322 -442 -399 -379 -360 -324 -286 -280 -273 -276 -224 -230 -231 -253
-0 -0 -0 -0 -0 -0 -0 -0 -0 -0 -0 -0 -0 -0 -0 -0 -0 -178 -363 -374 -375 -401 -340 -335 -307 -322 -309 -280 -267 -236 -239 -275
-0 -0 -0 -0 -0 -0 -0 -0 -0 -0 -0 -0 -0 -0 -0 -0 -115 -146 -299 -383 -354 -292 -303 -337 -365 -406 -382 -344 -328 -293 -283 -262
-0 -0 -0 -0 -0 -0 -0 -0 -0 -0 -0 -0 -0 -0 -0 -0 -122 -152 -202 -250 -275 -241 -349 -359 -359 -401 -439 -410 -353 -321 -286 -285
-0 -0 -0 -0 -0 -0 -0 -0 -0 -0 -0 -0 -0 -0 -0 -4 -102 -110 -112 -151 -181 -196 -245 -340 -395 -433 -400 -418 -384 -333 -307 -288
-33 -0 -0 -0 -0 -0 -0 -0 -0 -0 -0 -0 -0 -0 -59 -118 -125 -120 -145 -169 -251 -381 -407 -435 -436 -397 -424 -429 -402 -360 -316 -281
-0 -5 -4 -0 -0 -0 -0 -0 -0 -0 -0 -0 -0 -0 -0 -0 -0 -242 -283 -376 -387 -415 -428 -419 -445 -450 -445 -416 -331 -307 -278 -271
-8 -0 -0 -0 -0 -0 -0 -0 -0 -0 -0 -0 -0 -0 -168 -0 -0 -413 -438 -400 -358 -432 -436 -433 -439 -435 -346 -322 -292 -260 -254 -255
-84 -61 -13 -0 -0 -192 -0 -0 -0 -0 -0 -0 -256 -438 -731 -758 -648 -633 -594 -572 -492 -398 -364 -399 -415 -329 -258 -273 -264 -248 -256 -263
-67 -52 -98 -0 -315 -200 -408 -22 -328 -471 -497 -560 -664 -514 -720 -723 -699 -642 -639 -609 -534 -461 -454 -434 -413 -323 -278 -261 -321 -330 -340 -240
-0 -10 -0 -0 -0 -0 -524 -596 -586 -580 -663 -656 -644 -637 -657 -662 -625 -629 -542 -524 -451 -389 -402 -430 -407 -329 -300 -309 -411 -394 -317 -272
-0 -0 -0 -0 -0 -0 -0 -0 -125 -557 -579 -512 -645 -458 -446 -466 -472 -490 -458 -442 -450 -411 -377 -397 -436 -410 -363 -451 -380 -370 -289 -228
-128 -0 -0 -0 -0 -0 -0 -0 -0 -0 -0 -0 -0 -0 -475 -439 -421 -441 -439 -446 -399 -383 -380 -383 -367 -336 -356 -331 -326 -306 -227 -208
-18 -0 -0 -0 -0 -0 -0 -0 -0 -0 -0 -0 -0 -0 -0 -0 -0 -0 -151 -382 -342 -335 -336 -369 -331 -313 -297 -277 -226 -171 -181 -229
-0 -0 -0 -0 -0 -0 -0 -0 -0 -0 -0 -0 -0 -0 -0 -0 -0 -0 -0 -0 -196 -281 -311 -282 -248 -216 -205 -176 -149 -113 -89 -136
Wind_Speed
35 30 27 31 38 32 36 27 31 31 31 31 31 30 8 7 7 15 19 23 25 22 21 20 22 22 19 16 16 15 16 14
32 35 33 34 28 36 36 44 46 36 33 27 23 30 27 6 9 15 18 20 22 23 24 25 25 24 24 26 25 22 19 18
34 44 47 38 38 35 35 40 46 47 45 33 35 31 27 24 7 10 11 19 23 20 23 26 26 27 27 25 24 24 24 22
44 33 43 47 46 42 47 41 38 41 41 24 30 33 30 31 25 17 9 17 18 17 19 23 25 28 29 29 27 25 22 19
41 44 43 41 50 48 46 46 48 48 44 28 31 34 33 30 31 24 9 11 15 13 15 20 24 26 27 25 26 23 19 19
46 47 43 46 43 44 48 53 48 50 47 36 34 36 36 21 32 19 9 8 11 9 13 16 22 24 23 23 21 18 18 18
45 46 42 48 47 42 43 52 51 47 43 37 34 38 15 18 28 17 10 9 12 11 11 12 14 15 15 15 13 13 14 16
42 46 44 45 48 45 42 43 44 45 41 34 37 33 37 29 17 11 9 9 12 10 8 10 11 11 9 11 9 7 10 11
38 34 40 49 46 45 44 41 39 44 40 34 37 38 38 29 16 11 11 11 9 10 10 8 7 6 7 7 5 6 7 9
33 27 38 42 40 41 41 39 35 40 40 41 41 41 30 29 18 14 22 21 23 13 13 12 11 5 3 4 4 4 5 6
31 29 32 32 30 33 40 47 40 41 40 37 35 27 29 28 22 21 17 21 22 18 16 12 4 2 0 5 5 4 5 6
32 32 31 25 25 24 25 40 30 32 34 30 25 26 24 23 19 15 12 13 13 9 7 5 2 2 2 4 5 7 8 9
37 36 31 23 28 23 26 29 23 24 23 21 22 20 14 9 9 9 6 10 7 4 4 3 1 1 5 9 10 12 13 12
30 30 34 27 24 23 19 14 13 11 7 7 5 4 3 1 3 3 4 3 5 3 4 7 9 11 12 14 14 15 15 14
23 25 31 26 24 15 7 5 6 6 7 6 5 2 1 3 5 5 5 4 8 8 8 12 13 13 15 17 16 15 17 13
25 18 21 13 8 3 3 4 4 2 3 4 2 1 4 4 7 6 9 9 9 11 13 16 16 16 17 16 21 16 15 12
18 7 15 7 7 4 2 1 3 3 3 4 1 4 5 6 8 9 10 12 13 14 15 17 18 19 18 14 13 13 11 9
24 14 16 10 8 1 1 2 4 3 6 8 8 5 7 8 11 13 14 14 16 17 18 18 18 18 16 14 12 11 10 10
14 7 9 10 8 6 2 4 6 7 8 12 11 11 12 13 16 17 18 18 19 20 19 17 16 16 13 10 9 8 11 13
Wind_Direction
241 241 232 238 241 250 256 267 262 259 263 272 269 268 307 184 193 182 186 190 192 189 188 184 183 184 189 196 194 194 187 184
242 241 243 245 245 245 251 251 252 259 264 271 282 266 273 292 187 190 193 191 189 191 190 187 188 187 185 187 188 188 188 190
243 239 239 243 244 248 255 254 255 255 254 259 263 272 277 278 251 215 199 190 187 187 187 188 188 188 188 187 189 190 193 194
247 251 249 246 246 246 248 251 259 260 258 270 262 255 269 279 288 287 220 186 186 183 183 186 188 188 190 191 192 195 197 200
253 250 250 249 245 247 250 254 252 254 257 273 271 266 270 286 269 281 270 186 181 182 181 184 187 189 190 193 196 198 199 205
253 252 251 249 250 248 246 249 253 255 259 265 269 269 264 288 272 290 255 195 196 196 180 180 181 184 189 195 199 202 207 214
260 258 253 249 248 249 249 249 252 257 260 264 269 266 249 280 272 285 252 234 194 189 184 185 185 186 191 195 200 207 216 224
264 257 255 249 245 249 251 251 253 256 259 264 264 272 267 272 269 261 238 219 197 211 221 208 200 207 205 199 209 227 224 235
268 266 256 250 246 247 251 252 249 252 258 263 264 265 263 265 265 236 203 200 217 199 204 235 219 248 262 267 251 252 248 237
273 275 256 254 253 250 249 251 251 257 260 257 259 254 266 263 262 255 264 257 257 264 261 270 272 267 197 288 273 260 283 291
272 277 274 260 260 253 247 250 254 256 259 258 258 264 261 260 263 263 269 262 264 268 264 266 254 163 94 325 346 339 329 327
265 271 268 266 269 268 260 251 251 252 251 255 257 254 259 261 264 270 279 270 262 257 249 250 153 126 335 337 342 332 331 328
265 266 267 278 273 263 246 255 248 245 250 248 249 254 256 259 274 288 310 273 259 249 255 285 320 345 313 316 320 324 322 317
267 264 255 290 268 255 261 260 231 214 200 183 184 202 232 264 298 16 46 355 313 302 312 315 315 312 317 314 318 317 322 313
256 271 286 283 255 255 246 211 205 163 163 143 135 187 221 284 303 338 341 3 318 334 333 317 314 316 314 314 313 318 318 313
255 293 256 256 233 199 170 183 202 130 150 114 110 302 303 311 313 327 318 314 332 329 322 319 322 319 311 321 311 320 315 316
251 235 222 224 217 220 162 127 68 36 356 346 129 321 323 321 323 324 322 328 330 331 332 333 334 334 333 326 321 322 320 319
239 229 241 223 230 253 54 306 314 344 329 332 343 327 325 325 325 327 329 329 328 329 329 331 336 335 332 334 331 327 328 329
260 219 217 225 246 263 330 326 321 336 332 322 318 320 330 328 325 319 324 330 328 325 328 333 334 330 340 352 358 351 336 327